NEA887 KDCA-KCLE

Flight info

Callsign NEA887
Flight time 1h 0m
Altitude 38000
Route HORTO4 JERES J211 JST UPPRR TRYBE4
Aircraft A320/M-SDE3FGHIRWY/LB1

Departure

Time 2026-04-21 00:22
Airport Ronald Reagan Washington National Airport (KDCA)

Arrival

Time 2026-04-21 01:22
Airport Cleveland Hopkins International Airport (KCLE)
Time Latitude Longitude Altitude Speed Heading
2026-04-20 23:42 38.85442 -77.04237 24 ft 0 kts 162°
2026-04-21 00:11 38.85459 -77.04244 26 ft 4 kts 153°
2026-04-21 00:12 38.85481 -77.04263 25 ft 4 kts 124°
2026-04-21 00:12 38.85487 -77.04290 27 ft 2 kts 73°
2026-04-21 00:12 38.85487 -77.04293 28 ft 0 kts 72°
2026-04-21 00:17 38.85494 -77.04265 25 ft 9 kts 72°
2026-04-21 00:17 38.85520 -77.04158 24 ft 14 kts 72°
2026-04-21 00:17 38.85523 -77.04033 26 ft 15 kts 131°
2026-04-21 00:17 38.85417 -77.04004 24 ft 17 kts 176°
2026-04-21 00:18 38.85292 -77.03991 24 ft 19 kts 175°
2026-04-21 00:18 38.85153 -77.03977 24 ft 21 kts 175°
2026-04-21 00:18 38.85000 -77.03962 24 ft 23 kts 175°
2026-04-21 00:18 38.84879 -77.03930 24 ft 15 kts 122°
2026-04-21 00:19 38.84790 -77.03880 24 ft 15 kts 176°
2026-04-21 00:19 38.84677 -77.03870 25 ft 17 kts 174°
2026-04-21 00:19 38.84551 -77.03856 24 ft 19 kts 175°
2026-04-21 00:19 38.84422 -77.03843 25 ft 17 kts 175°
2026-04-21 00:20 38.84300 -77.03831 28 ft 17 kts 175°
2026-04-21 00:20 38.84232 -77.03807 26 ft 8 kts 138°
2026-04-21 00:20 38.84215 -77.03772 26 ft 5 kts 122°
2026-04-21 00:20 38.84190 -77.03721 24 ft 8 kts 122°
2026-04-21 00:21 38.84211 -77.03680 24 ft 6 kts 347°
2026-04-21 00:21 38.84276 -77.03690 23 ft 22 kts 353°
2026-04-21 00:21 38.84673 -77.03729 24 ft 89 kts 355°
2026-04-21 00:21 38.85464 -77.03809 47 ft 135 kts 355°
2026-04-21 00:22 38.86390 -77.03884 652 ft 133 kts 354°
2026-04-21 00:22 38.87277 -77.04281 1135 ft 145 kts 328°
2026-04-21 00:22 38.88126 -77.05169 1379 ft 169 kts 321°
2026-04-21 00:22 38.89081 -77.06228 1586 ft 196 kts 321°
2026-04-21 00:23 38.90133 -77.07531 1979 ft 220 kts 308°
2026-04-21 00:23 38.90977 -77.09309 2470 ft 246 kts 303°
2026-04-21 00:23 38.91915 -77.11174 3403 ft 246 kts 315°
2026-04-21 00:23 38.93244 -77.12532 4498 ft 244 kts 328°
2026-04-21 00:24 38.94710 -77.13627 5498 ft 245 kts 331°
2026-04-21 00:24 38.96124 -77.14840 6445 ft 246 kts 314°
2026-04-21 00:24 38.96984 -77.16731 7317 ft 250 kts 288°
2026-04-21 00:24 38.97354 -77.18929 8203 ft 253 kts 284°
2026-04-21 00:25 38.97697 -77.21157 9086 ft 256 kts 284°
2026-04-21 00:25 38.98047 -77.23422 9784 ft 261 kts 284°
2026-04-21 00:25 38.98403 -77.25704 9974 ft 260 kts 284°
2026-04-21 00:25 38.98760 -77.27980 10005 ft 262 kts 284°
2026-04-21 00:26 38.99251 -77.30375 10012 ft 288 kts 294°
2026-04-21 00:26 39.00220 -77.32642 10009 ft 290 kts 308°
2026-04-21 00:26 39.01601 -77.34498 10016 ft 289 kts 318°
2026-04-21 00:26 39.03071 -77.36182 10016 ft 282 kts 318°
2026-04-21 00:27 39.04499 -77.37840 10004 ft 269 kts 317°
2026-04-21 00:27 39.05848 -77.39417 10007 ft 256 kts 317°
2026-04-21 00:27 39.07162 -77.40955 10035 ft 255 kts 317°
2026-04-21 00:27 39.08506 -77.42531 10328 ft 272 kts 317°
2026-04-21 00:28 39.10012 -77.44210 10650 ft 291 kts 323°
2026-04-21 00:28 39.11792 -77.45494 11319 ft 297 kts 336°
2026-04-21 00:28 39.13791 -77.46202 12127 ft 300 kts 349°
2026-04-21 00:28 39.15862 -77.46297 12913 ft 304 kts 357°
2026-04-21 00:29 39.17978 -77.46251 13712 ft 304 kts 357°
2026-04-21 00:29 39.20099 -77.46214 14473 ft 305 kts 356°
2026-04-21 00:29 39.22224 -77.46182 15175 ft 305 kts 356°
2026-04-21 00:29 39.24346 -77.46151 15878 ft 305 kts 356°
2026-04-21 00:30 39.26468 -77.46121 16577 ft 305 kts 356°
2026-04-21 00:30 39.28596 -77.46092 17196 ft 306 kts 356°
2026-04-21 00:30 39.30721 -77.46064 17910 ft 305 kts 355°
2026-04-21 00:30 39.32845 -77.46032 18611 ft 305 kts 355°
2026-04-21 00:31 39.34973 -77.45996 19202 ft 307 kts 355°
2026-04-21 00:31 39.37115 -77.45956 19788 ft 308 kts 356°
2026-04-21 00:31 39.39267 -77.45917 20364 ft 310 kts 355°
2026-04-21 00:31 39.41437 -77.45881 20923 ft 313 kts 355°
2026-04-21 00:32 39.43590 -77.45845 21451 ft 315 kts 355°
2026-04-21 00:32 39.45793 -77.45807 21961 ft 317 kts 355°
2026-04-21 00:32 39.48007 -77.45771 22468 ft 319 kts 355°
2026-04-21 00:32 39.50234 -77.45737 22991 ft 321 kts 355°
2026-04-21 00:33 39.52472 -77.45699 23494 ft 323 kts 355°
2026-04-21 00:33 39.54727 -77.45661 23948 ft 325 kts 355°
2026-04-21 00:33 39.56997 -77.45627 24341 ft 327 kts 355°
2026-04-21 00:33 39.59279 -77.45611 24760 ft 328 kts 353°
2026-04-21 00:34 39.61507 -77.46144 25125 ft 326 kts 339°
2026-04-21 00:34 39.63522 -77.47478 25526 ft 328 kts 326°
2026-04-21 00:34 39.65190 -77.49535 25907 ft 336 kts 313°
2026-04-21 00:34 39.66367 -77.52204 26300 ft 349 kts 300°
2026-04-21 00:35 39.67271 -77.55147 26678 ft 352 kts 299°
2026-04-21 00:35 39.68173 -77.58107 27072 ft 354 kts 299°
2026-04-21 00:35 39.69086 -77.61087 27395 ft 356 kts 299°
2026-04-21 00:35 39.70003 -77.64087 27758 ft 359 kts 299°
2026-04-21 00:36 39.70921 -77.67109 28143 ft 361 kts 298°
2026-04-21 00:36 39.71843 -77.70150 28527 ft 363 kts 299°
2026-04-21 00:36 39.72775 -77.73214 28890 ft 365 kts 299°
2026-04-21 00:36 39.73397 -77.75252 29148 ft 367 kts 299°
2026-04-21 00:37 39.74337 -77.78338 29529 ft 369 kts 299°
2026-04-21 00:37 39.75590 -77.82462 30057 ft 372 kts 299°
2026-04-21 00:37 39.76542 -77.85596 30418 ft 374 kts 299°
2026-04-21 00:37 39.77500 -77.88757 30727 ft 377 kts 298°
2026-04-21 00:38 39.78149 -77.90900 30910 ft 378 kts 298°
2026-04-21 00:38 39.79112 -77.94092 31200 ft 381 kts 298°
2026-04-21 00:38 39.80066 -77.97271 31426 ft 383 kts 298°
2026-04-21 00:38 39.81040 -78.00510 31730 ft 385 kts 298°
2026-04-21 00:39 39.82018 -78.03748 32133 ft 385 kts 297°
2026-04-21 00:39 39.82992 -78.06986 32555 ft 383 kts 298°
2026-04-21 00:39 39.84190 -78.10045 32950 ft 377 kts 307°
2026-04-21 00:39 39.85749 -78.12761 33336 ft 373 kts 314°
2026-04-21 00:40 39.87447 -78.15314 33728 ft 373 kts 314°
2026-04-21 00:40 39.89143 -78.17880 34096 ft 374 kts 314°
2026-04-21 00:40 39.91406 -78.21329 34554 ft 375 kts 313°
2026-04-21 00:40 39.92528 -78.23044 34766 ft 376 kts 313°
2026-04-21 00:41 39.94222 -78.25640 35055 ft 376 kts 313°
2026-04-21 00:41 39.95919 -78.28240 35332 ft 377 kts 313°
2026-04-21 00:41 39.97623 -78.30849 35598 ft 379 kts 313°
2026-04-21 00:41 39.99337 -78.33471 35852 ft 380 kts 313°
2026-04-21 00:42 40.01054 -78.36098 36108 ft 381 kts 312°
2026-04-21 00:42 40.02771 -78.38735 36361 ft 382 kts 312°
2026-04-21 00:42 40.04494 -78.41385 36613 ft 383 kts 312°
2026-04-21 00:42 40.06221 -78.44040 36855 ft 384 kts 312°
2026-04-21 00:43 40.07952 -78.46696 37075 ft 385 kts 312°
2026-04-21 00:43 40.09694 -78.49370 37318 ft 386 kts 311°
2026-04-21 00:43 40.11435 -78.52052 37548 ft 387 kts 311°
2026-04-21 00:43 40.13177 -78.54738 37774 ft 388 kts 311°
2026-04-21 00:44 40.14922 -78.57438 38005 ft 389 kts 311°
2026-04-21 00:44 40.16651 -78.60112 38228 ft 390 kts 311°
2026-04-21 00:44 40.18407 -78.62825 38347 ft 392 kts 311°
2026-04-21 00:45 40.23699 -78.71008 38364 ft 392 kts 311°
2026-04-21 00:45 40.27216 -78.76471 38299 ft 391 kts 311°
2026-04-21 00:46 40.30720 -78.81930 38302 ft 391 kts 311°
2026-04-21 00:46 40.34318 -78.87278 38305 ft 391 kts 314°
2026-04-21 00:47 40.38104 -78.92410 38328 ft 391 kts 315°
2026-04-21 00:47 40.41907 -78.97535 38333 ft 392 kts 315°
2026-04-21 00:48 40.45654 -79.02686 38376 ft 392 kts 314°
2026-04-21 00:48 40.49408 -79.07910 38347 ft 392 kts 314°
2026-04-21 00:49 40.53159 -79.13132 38358 ft 392 kts 314°
2026-04-21 00:49 40.56908 -79.18345 38364 ft 392 kts 314°
2026-04-21 00:50 40.60656 -79.23565 38368 ft 392 kts 314°
2026-04-21 00:50 40.64400 -79.28794 38384 ft 392 kts 314°
2026-04-21 00:51 40.68135 -79.34024 38386 ft 392 kts 314°
2026-04-21 00:51 40.71866 -79.39266 38390 ft 392 kts 314°
2026-04-21 00:52 40.75583 -79.44483 38383 ft 392 kts 314°
2026-04-21 00:52 40.79310 -79.49718 38411 ft 391 kts 314°
2026-04-21 00:53 40.83034 -79.54959 38418 ft 391 kts 314°
2026-04-21 00:53 40.86758 -79.60210 38422 ft 391 kts 314°
2026-04-21 00:54 40.90474 -79.65449 38429 ft 391 kts 314°
2026-04-21 00:54 40.94185 -79.70707 38423 ft 391 kts 314°
2026-04-21 00:55 40.96062 -79.73368 38163 ft 400 kts 314°
2026-04-21 00:55 40.97958 -79.76061 37663 ft 399 kts 314°
2026-04-21 00:55 40.99838 -79.78739 37131 ft 397 kts 314°
2026-04-21 00:55 41.01719 -79.81419 36535 ft 396 kts 315°
2026-04-21 00:56 41.03555 -79.84031 36209 ft 388 kts 315°
2026-04-21 00:56 41.05373 -79.86622 35555 ft 379 kts 315°
2026-04-21 00:56 41.07124 -79.89122 35215 ft 363 kts 315°
2026-04-21 00:56 41.08810 -79.91534 34822 ft 349 kts 315°
2026-04-21 00:57 41.10430 -79.93847 34438 ft 336 kts 315°
2026-04-21 00:57 41.11994 -79.96084 33957 ft 326 kts 315°
2026-04-21 00:57 41.13537 -79.98286 33663 ft 326 kts 315°
2026-04-21 00:57 41.15077 -80.00486 33304 ft 323 kts 315°
2026-04-21 00:58 41.16597 -80.02662 32941 ft 320 kts 315°
2026-04-21 00:58 41.18106 -80.04827 32577 ft 318 kts 315°
2026-04-21 00:58 41.19599 -80.06974 32218 ft 315 kts 315°
2026-04-21 00:58 41.21079 -80.09098 31865 ft 312 kts 315°
2026-04-21 00:59 41.22546 -80.11200 31516 ft 309 kts 315°
2026-04-21 00:59 41.23907 -80.13400 31148 ft 309 kts 308°
2026-04-21 00:59 41.24992 -80.15883 30755 ft 313 kts 301°
2026-04-21 00:59 41.25826 -80.18560 30332 ft 313 kts 298°
2026-04-21 01:00 41.26629 -80.21242 29937 ft 310 kts 298°
2026-04-21 01:00 41.27421 -80.23893 29562 ft 307 kts 298°
2026-04-21 01:00 41.28207 -80.26516 29195 ft 303 kts 298°
2026-04-21 01:00 41.28983 -80.29103 28844 ft 300 kts 298°
2026-04-21 01:01 41.29755 -80.31672 28489 ft 298 kts 298°
2026-04-21 01:01 41.30522 -80.34228 28155 ft 297 kts 298°
2026-04-21 01:01 41.31285 -80.36774 27823 ft 296 kts 298°
2026-04-21 01:01 41.32043 -80.39312 27486 ft 295 kts 297°
2026-04-21 01:02 41.32795 -80.41842 27162 ft 293 kts 297°
2026-04-21 01:02 41.33537 -80.44333 26830 ft 292 kts 297°
2026-04-21 01:02 41.34285 -80.46847 26490 ft 291 kts 297°
2026-04-21 01:02 41.35028 -80.49348 26155 ft 290 kts 297°
2026-04-21 01:03 41.35770 -80.51843 25805 ft 289 kts 297°
2026-04-21 01:03 41.36508 -80.54328 25449 ft 288 kts 297°
2026-04-21 01:03 41.37244 -80.56811 25124 ft 288 kts 297°
2026-04-21 01:03 41.37975 -80.59287 24765 ft 287 kts 297°
2026-04-21 01:04 41.38703 -80.61755 24416 ft 286 kts 297°
2026-04-21 01:04 41.39429 -80.64215 24023 ft 285 kts 297°
2026-04-21 01:04 41.40154 -80.66665 23629 ft 284 kts 297°
2026-04-21 01:04 41.40868 -80.69073 23253 ft 283 kts 297°
2026-04-21 01:05 41.41616 -80.71591 22881 ft 300 kts 296°
2026-04-21 01:05 41.42387 -80.74201 22495 ft 305 kts 296°
2026-04-21 01:05 41.43159 -80.76844 22108 ft 305 kts 296°
2026-04-21 01:05 41.43926 -80.79473 21722 ft 304 kts 296°
2026-04-21 01:06 41.44688 -80.82088 21344 ft 302 kts 296°
2026-04-21 01:06 41.45447 -80.84701 20961 ft 301 kts 295°
2026-04-21 01:06 41.46204 -80.87300 20582 ft 300 kts 295°
2026-04-21 01:06 41.46961 -80.89890 20204 ft 298 kts 295°
2026-04-21 01:07 41.47712 -80.92460 19810 ft 297 kts 295°
2026-04-21 01:07 41.48448 -80.94988 19469 ft 296 kts 295°
2026-04-21 01:07 41.49189 -80.97538 19089 ft 294 kts 295°
2026-04-21 01:07 41.49928 -81.00080 18718 ft 293 kts 294°
2026-04-21 01:08 41.50665 -81.02621 18310 ft 292 kts 294°
2026-04-21 01:08 41.51281 -81.05230 17640 ft 300 kts 285°
2026-04-21 01:08 41.51513 -81.07995 17262 ft 301 kts 276°
2026-04-21 01:08 41.51424 -81.10795 16803 ft 302 kts 272°
2026-04-21 01:09 41.51300 -81.13586 16408 ft 300 kts 272°
2026-04-21 01:09 41.51180 -81.16351 16028 ft 297 kts 272°
2026-04-21 01:09 41.51066 -81.19066 15653 ft 296 kts 272°
2026-04-21 01:09 41.50952 -81.21797 15269 ft 294 kts 272°
2026-04-21 01:10 41.50840 -81.24515 14896 ft 293 kts 272°
2026-04-21 01:10 41.50728 -81.27227 14518 ft 292 kts 271°
2026-04-21 01:10 41.50441 -81.29914 14128 ft 294 kts 264°
2026-04-21 01:10 41.50059 -81.32587 13732 ft 292 kts 264°
2026-04-21 01:11 41.49675 -81.35242 13347 ft 290 kts 264°
2026-04-21 01:11 41.49294 -81.37870 12985 ft 288 kts 264°
2026-04-21 01:11 41.48916 -81.40482 12618 ft 286 kts 264°
2026-04-21 01:11 41.48538 -81.43089 12243 ft 285 kts 264°
2026-04-21 01:12 41.48169 -81.45639 11934 ft 283 kts 264°
2026-04-21 01:12 41.47793 -81.48215 11573 ft 282 kts 263°
2026-04-21 01:12 41.47421 -81.50763 11316 ft 277 kts 263°
2026-04-21 01:12 41.47054 -81.53289 10949 ft 277 kts 263°
2026-04-21 01:13 41.46692 -81.55769 10573 ft 275 kts 263°
2026-04-21 01:13 41.46183 -81.58202 10125 ft 272 kts 252°
2026-04-21 01:13 41.45288 -81.60445 9674 ft 276 kts 240°
2026-04-21 01:13 41.44074 -81.62433 9190 ft 276 kts 234°
2026-04-21 01:14 41.42833 -81.64373 8711 ft 274 kts 234°
2026-04-21 01:14 41.41606 -81.66297 8242 ft 271 kts 234°
2026-04-21 01:14 41.40378 -81.68226 7792 ft 275 kts 234°
2026-04-21 01:14 41.39148 -81.70155 7517 ft 271 kts 234°
2026-04-21 01:15 41.37943 -81.72042 7358 ft 263 kts 234°
2026-04-21 01:15 41.36770 -81.73869 7224 ft 256 kts 233°
2026-04-21 01:15 41.35612 -81.75668 6866 ft 256 kts 233°
2026-04-21 01:15 41.34471 -81.77448 6466 ft 249 kts 233°
2026-04-21 01:16 41.33367 -81.79178 6064 ft 241 kts 233°
2026-04-21 01:16 41.32297 -81.80861 5662 ft 235 kts 233°
2026-04-21 01:16 41.31261 -81.82502 5276 ft 228 kts 233°
2026-04-21 01:16 41.30263 -81.84089 4988 ft 219 kts 233°
2026-04-21 01:17 41.29296 -81.85634 4723 ft 216 kts 233°
2026-04-21 01:17 41.28342 -81.87170 4454 ft 214 kts 233°
2026-04-21 01:17 41.27437 -81.88699 4184 ft 211 kts 241°
2026-04-21 01:17 41.26989 -81.90513 3927 ft 207 kts 268°
2026-04-21 01:18 41.27248 -81.92361 3666 ft 205 kts 295°
2026-04-21 01:18 41.28148 -81.93814 3402 ft 206 kts 323°
2026-04-21 01:18 41.29469 -81.94509 3170 ft 206 kts 349°
2026-04-21 01:18 41.30879 -81.94757 2951 ft 203 kts 350°
2026-04-21 01:19 41.32259 -81.95001 2740 ft 193 kts 351°
2026-04-21 01:19 41.33532 -81.95175 2523 ft 177 kts
2026-04-21 01:19 41.34689 -81.94868 2349 ft 162 kts 21°
2026-04-21 01:19 41.35615 -81.94137 2178 ft 150 kts 40°
2026-04-21 01:20 41.36309 -81.93145 1979 ft 144 kts 50°
2026-04-21 01:20 41.36951 -81.92136 1771 ft 141 kts 50°
2026-04-21 01:20 41.37581 -81.91151 1559 ft 139 kts 49°
2026-04-21 01:20 41.38202 -81.90181 1310 ft 136 kts 51°
2026-04-21 01:21 41.38600 -81.89544 1211 ft 134 kts 50°
2026-04-21 01:21 41.39408 -81.88275 940 ft 134 kts 51°
2026-04-21 01:21 41.39997 -81.87338 778 ft 133 kts 50°
2026-04-21 01:21 41.40557 -81.86443 729 ft 110 kts 49°
2026-04-21 01:22 41.40943 -81.85838 730 ft 61 kts 50°
2026-04-21 01:22 41.41066 -81.85640 729 ft 21 kts 55°
2026-04-21 01:22 41.41084 -81.85465 730 ft 19 kts 89°
2026-04-21 01:22 41.41139 -81.85305 730 ft 21 kts 50°
2026-04-21 01:23 41.41235 -81.85149 735 ft 23 kts 50°
2026-04-21 01:23 41.41324 -81.85005 733 ft 12 kts 65°
2026-04-21 01:23 41.41276 -81.84909 732 ft 15 kts 140°
2026-04-21 01:23 41.41190 -81.84812 733 ft 17 kts 139°
2026-04-21 01:24 41.41098 -81.84692 730 ft 18 kts 110°
2026-04-21 01:24 41.41070 -81.84577 730 ft 15 kts 137°
2026-04-21 01:24 41.40981 -81.84482 730 ft 18 kts 141°
2026-04-21 01:24 41.40934 -81.84360 730 ft 15 kts 82°
2026-04-21 01:25 41.40977 -81.84222 732 ft 10 kts 63°
2026-04-21 01:25 41.41002 -81.84142 732 ft 6 kts 90°
2026-04-21 01:25 41.40969 -81.84115 732 ft 7 kts 151°
2026-04-21 01:25 41.40935 -81.84080 732 ft 7 kts 141°
2026-04-21 01:26 41.40918 -81.84063 732 ft 2 kts 141°
2026-04-21 01:26 41.40915 -81.84059 732 ft 0 kts 141°